Location: Bratsk-Energetik
(56.3300°N, 101.7600°E)
Time: 13:22:40
(UTC+08:00)

ISS - Pass Details

Date: 27 May 2017
Orbit: 401 x 408 km, 51.6° (Epoch: 27 June)

Event Time Altitude Azimuth Distance (km) Brightness Sun altitude
Rises 02:17:43 0° 270° (W) 2,338 -0.1 -11.1°
Reaches altitude 10° 02:20:05 10° 256° (WSW) 1,474 -1.3 -11.0°
Maximum altitude 02:22:45 23° 202° (SSW) 927 -2.6 -10.9°
Drops below altitude 10° 02:25:24 10° 148° (SSE) 1,465 -1.4 -10.8°
Sets 02:27:44 0° 133° (SE) 2,321 -0.2 -10.7°
